Pagosa Springs, CO

12:48 PM MDT on March 28, 2017 (GMT -0600)
Pagosa Springs

Weather History for KPSO - April, 2013

Change the Weather History Date:

Tuesday, April 23, 2013

  Actual Average (KE33) Record (KE33)
Temperature  
Mean Temperature 40 °F -  
Max Temperature 53 °F 53 °F 71 °F (2012)
Min Temperature 28 °F 33 °F 24 °F (2001)
Degree Days  
Heating Degree Days 24    
Moisture  
Dew Point 6 °F    
Average Humidity 26    
Maximum Humidity 61    
Minimum Humidity 6    
Precipitation  
Precipitation 0.00 in - - ()
Sea Level Pressure  
Sea Level Pressure 29.95 in    
Wind  
Wind Speed 7 mph (WSW)    
Max Wind Speed 25 mph    
Max Gust Speed 37 mph    
Visibility 10 miles    
Events      
Averages and records for this station are not official NWS values.
T = Trace of Precipitation, MM = Missing Value Source: NWS Daily Summary

Daily Weather History Graph

Daily Weather History Graph

Search for Another Location

Airport or City:

Trip Planner

Search our weather history database for the weather conditions in past years. The results will help you decide how hot, cold, wet, or windy it might be!

Date:

Astronomy

Apr. 23, 2013 Rise Set
Actual Time 6:22 AM MDT 7:50 PM MDT
Civil Twilight 5:55 AM MDT 8:18 PM MDT
Nautical Twilight 5:22 AM MDT 8:51 PM MDT
Astronomical Twilight 4:47 AM MDT 9:26 PM MDT
Moon 5:51 PM MDT (4/23) 4:49 AM MDT (4/23)
Length of Visible Light 14h 23m
Length of Day
13h 28m
Waxing Gibbous, 94% of the Moon is Illuminated
Apr 23
Waxing Gibbous
Apr 25
Full
May 2
Last Quarter
May 9
New
May 17
First Quarter

Hourly Weather History & Observations

Time (MDT) Temp. Windchill Dew Point Humidity Pressure Visibility Wind Dir Wind Speed Gust Speed Precip Events Conditions
12:15 AM 53.4 °F - 13.5 °F 20% 29.88 in 10.0 mi SW 5.8 mph - N/A   Scattered Clouds
12:35 AM 52.3 °F - 13.3 °F 21% 29.87 in 10.0 mi SW 3.5 mph - N/A   Scattered Clouds
12:55 AM 50.2 °F - 13.6 °F 23% 29.88 in 10.0 mi SW 3.5 mph - N/A   Clear
1:15 AM 44.2 °F - 18.1 °F 35% 29.88 in 10.0 mi Calm Calm - N/A   Clear
1:35 AM 43.5 °F - 16.0 °F 33% 29.87 in 10.0 mi Calm Calm - N/A   Clear
1:55 AM 44.8 °F 43.3 °F 15.8 °F 31% 29.87 in 10.0 mi WSW 3.5 mph - N/A   Clear
2:15 AM 45.9 °F 42.9 °F 14.9 °F 29% 29.87 in 10.0 mi WSW 5.8 mph - N/A   Clear
2:35 AM 46.4 °F 43.5 °F 14.9 °F 28% 29.87 in 10.0 mi WSW 5.8 mph - N/A   Clear
2:55 AM 48.4 °F - 14.0 °F 25% 29.86 in 10.0 mi WSW 6.9 mph - N/A   Clear
3:15 AM 45.1 °F 42.8 °F 15.4 °F 30% 29.86 in 10.0 mi West 4.6 mph - N/A   Clear
3:35 AM 46.4 °F - 13.5 °F 27% 29.87 in 10.0 mi Calm Calm - N/A   Clear
3:55 AM 37.9 °F - 18.1 °F 45% 29.86 in 10.0 mi Calm Calm - N/A   Clear
4:15 AM 36.9 °F - 17.4 °F 45% 29.87 in 10.0 mi Calm Calm - N/A   Clear
4:35 AM 34.2 °F - 20.1 °F 57% 29.86 in 10.0 mi Calm Calm - N/A   Clear
4:55 AM 33.3 °F - 19.2 °F 56% 29.87 in 10.0 mi Calm Calm - N/A   Clear
5:15 AM 37.0 °F - 17.2 °F 45% 29.87 in 10.0 mi Calm Calm - N/A   Clear
5:35 AM 34.0 °F - 19.0 °F 54% 29.88 in 10.0 mi Calm Calm - N/A   Scattered Clouds
5:55 AM 35.6 °F - 18.7 °F 50% 29.88 in 10.0 mi Calm Calm - N/A   Scattered Clouds
6:15 AM 34.0 °F - 18.5 °F 53% 29.88 in 10.0 mi Calm Calm - N/A   Clear
6:35 AM 33.3 °F - 19.0 °F 56% 29.89 in 10.0 mi Calm Calm - N/A   Scattered Clouds
6:55 AM 33.1 °F - 19.2 °F 57% 29.90 in 10.0 mi Calm Calm - N/A   Clear
7:15 AM 32.2 °F - 20.1 °F 61% 29.92 in 10.0 mi Calm Calm - N/A   Clear
7:35 AM 36.3 °F - 20.8 °F 53% 29.92 in 10.0 mi Calm Calm - N/A   Clear
7:55 AM 37.0 °F - 20.3 °F 51% 29.93 in 10.0 mi Calm Calm - N/A   Mostly Cloudy
8:15 AM 40.3 °F - 18.3 °F 41% 29.94 in 10.0 mi Calm Calm - N/A   Overcast
8:35 AM 41.4 °F - 18.5 °F 40% 29.93 in 10.0 mi Calm Calm - N/A   Overcast
8:55 AM 43.0 °F - 18.1 °F 37% 29.94 in 10.0 mi Calm Calm - N/A   Scattered Clouds
9:15 AM 45.7 °F 40.2 °F 19.4 °F 35% 29.93 in 10.0 mi SW 11.5 mph - N/A   Clear
9:35 AM 48.2 °F - 18.5 °F 31% 29.93 in 10.0 mi WSW 16.1 mph 23.0 mph N/A   Clear
9:55 AM 47.7 °F - 18.1 °F 31% 29.93 in 10.0 mi SW 19.6 mph 28.8 mph N/A   Scattered Clouds
10:15 AM 48.7 °F - 18.1 °F 30% 29.92 in 10.0 mi SSW 19.6 mph 29.9 mph N/A   Mostly Cloudy
10:35 AM 48.6 °F - 14.5 °F 26% 29.92 in 10.0 mi SW 21.9 mph 29.9 mph N/A   Overcast
10:55 AM 48.0 °F - 13.5 °F 25% 29.93 in 10.0 mi SW 19.6 mph 24.2 mph N/A   Overcast
11:15 AM 47.5 °F - 6.8 °F 19% 29.93 in 10.0 mi SW 21.9 mph 28.8 mph N/A   Overcast
11:35 AM 47.8 °F - 6.8 °F 19% 29.93 in 10.0 mi SW 19.6 mph 29.9 mph N/A   Overcast
11:55 AM 48.4 °F - 7.9 °F 19% 29.93 in 10.0 mi SSW 20.7 mph 31.1 mph N/A   Mostly Cloudy
12:15 PM 48.9 °F - 4.5 °F 16% 29.93 in 10.0 mi SW 20.7 mph 32.2 mph N/A   Scattered Clouds
12:35 PM 48.4 °F - 3.2 °F 16% 29.93 in 10.0 mi SW 21.9 mph 31.1 mph N/A   Clear
12:55 PM 49.8 °F - -1.3 °F 12% 29.91 in 10.0 mi SSW 23.0 mph 34.5 mph N/A   Clear
1:15 PM 49.1 °F - -1.5 °F 12% 29.91 in 10.0 mi SW 18.4 mph 29.9 mph N/A   Clear
1:35 PM 50.0 °F - 0.7 °F 13% 29.91 in 10.0 mi SW 21.9 mph 28.8 mph N/A   Clear
1:55 PM 50.2 °F - 0.3 °F 13% 29.90 in 10.0 mi SW 18.4 mph 33.4 mph N/A   Clear
2:15 PM 49.5 °F - -0.9 °F 13% 29.90 in 10.0 mi SW 24.2 mph 36.8 mph N/A   Clear
2:35 PM 50.9 °F - 0.7 °F 13% 29.90 in 10.0 mi SW 25.3 mph 33.4 mph N/A   Clear
2:55 PM 50.7 °F - -0.8 °F 12% 29.90 in 10.0 mi SW 21.9 mph 32.2 mph N/A   Clear
3:15 PM 51.1 °F - -1.5 °F 11% 29.90 in 10.0 mi SW 21.9 mph 33.4 mph N/A   Clear
3:35 PM 50.9 °F - -2.0 °F 11% 29.90 in 10.0 mi SW 25.3 mph 34.5 mph N/A   Clear
3:55 PM 51.1 °F - -5.1 °F 10% 29.91 in 10.0 mi West 25.3 mph 32.2 mph N/A   Clear
4:15 PM 52.2 °F - -15.3 °F 6% 29.92 in 10.0 mi West 20.7 mph 33.4 mph N/A   Clear
4:35 PM 51.8 °F - -11.0 °F 7% 29.93 in 10.0 mi West 23.0 mph 29.9 mph N/A   Clear
4:55 PM 50.9 °F - -13.4 °F 7% 29.94 in 10.0 mi WNW 15.0 mph 23.0 mph N/A   Clear
5:15 PM 49.8 °F - -12.8 °F 7% 29.95 in 10.0 mi West 16.1 mph 27.6 mph N/A   Clear
5:35 PM 49.1 °F - -12.3 °F 7% 29.97 in 10.0 mi West 15.0 mph 24.2 mph N/A   Clear
5:55 PM 48.2 °F - -9.9 °F 9% 29.99 in 10.0 mi NNW 9.2 mph 23.0 mph N/A   Clear
6:15 PM 48.7 °F - -12.6 °F 7% 30.00 in 10.0 mi NW 13.8 mph 24.2 mph N/A   Clear
6:35 PM 47.3 °F - -10.3 °F 9% 30.02 in 10.0 mi West 8.1 mph 19.6 mph N/A   Clear
6:55 PM 46.2 °F 41.7 °F -10.7 °F 9% 30.03 in 10.0 mi NW 9.2 mph - N/A   Clear
7:15 PM 45.0 °F 38.9 °F -13.7 °F 8% 30.04 in 10.0 mi WNW 12.7 mph 17.3 mph N/A   Clear
7:35 PM 43.7 °F 38.6 °F -10.5 °F 10% 30.05 in 10.0 mi NW 9.2 mph - N/A   Clear
7:55 PM 42.4 °F 38.8 °F -9.9 °F 11% 30.06 in 10.0 mi NNW 5.8 mph - N/A   Clear
8:15 PM 40.3 °F 38.2 °F -7.8 °F 13% 30.07 in 10.0 mi WNW 3.5 mph - N/A   Clear
8:35 PM 35.2 °F 32.4 °F -2.9 °F 20% 30.07 in 10.0 mi NW 3.5 mph - N/A   Clear
8:55 PM 34.0 °F 29.8 °F -4.0 °F 20% 30.07 in 10.0 mi NW 4.6 mph - N/A   Clear
9:15 PM 32.9 °F - -0.4 °F 24% 30.07 in 10.0 mi Calm Calm - N/A   Clear
9:35 PM 34.7 °F - -4.4 °F 19% 30.09 in 10.0 mi Calm Calm - N/A   Clear
9:55 PM 30.6 °F - -0.6 °F 26% 30.10 in 10.0 mi Calm Calm - N/A   Clear
10:15 PM 29.8 °F - -0.8 °F 27% 30.11 in 10.0 mi Calm Calm - N/A   Clear
10:35 PM 33.6 °F - -1.3 °F 23% 30.12 in 10.0 mi Calm Calm - N/A   Clear
10:55 PM 28.0 °F - 0.1 °F 30% 30.12 in 10.0 mi Calm Calm - N/A   Clear
11:15 PM 28.4 °F - -1.3 °F 28% 30.13 in 10.0 mi Calm Calm - N/A   Clear
11:35 PM 29.1 °F - 3.9 °F 34% 30.14 in 10.0 mi Calm Calm - N/A   Clear
11:55 PM 32.0 °F - 4.3 °F 31% 30.15 in 10.0 mi Calm Calm - N/A   Clear